contact: severine.martini@mio.osupytheas.fr, dominique.lefevre@mio.osupytheas.fr
Project:EMSO Ligure-ouest http://www.emso-fr.org/EMSO-France
Sensor Optode, line 4330 Serial 272 
DOI : "https://doi.org/10.17882/97948" 
Title:EMSO Ligure Ouest : Data BathyDock capteur Optode - deploiement "2023-04-28"
Datetime,Profondeur,Latitude,Longitude,optode_type,serial,O2_concentration,O2_saturation,Temperature,Calibrated_Phase,Temp_Compensated_Phase,phase_blue_light,phase_red_light,Amplitude_blue_light,Amplitude_red_light,thermistor_bridge
time,m,degree_north,degree_east,1,1,umol.l-1,%,degree_C,degree,degree,degree,degree,mV,mV,mV
2023-10-11T00:00:08,2420,42.8014,5.9826,4330,272,186.716,57.184,13.309,36.024,36.604,41.185,4.581,295.3,543.2,291.3
2023-10-11T00:03:07,2420,42.8014,5.9826,4330,272,186.877,57.238,13.312,36.011,36.591,41.179,4.587,295.3,543.2,291.1
2023-10-11T00:06:07,2420,42.8014,5.9826,4330,272,186.909,57.238,13.305,36.013,36.593,41.184,4.591,295.3,543.2,291.4
2023-10-11T00:09:07,2420,42.8014,5.9826,4330,272,186.934,57.246,13.304,36.012,36.592,41.172,4.580,295.3,543.1,291.4
2023-10-11T00:12:07,2420,42.8014,5.9826,4330,272,186.937,57.249,13.307,36.011,36.591,41.177,4.586,295.2,543.2,291.3
2023-10-11T00:15:08,2420,42.8014,5.9826,4330,272,187.084,57.305,13.315,35.997,36.577,41.166,4.589,295.3,543.2,291.1
2023-10-11T00:18:08,2420,42.8014,5.9826,4330,272,186.941,57.257,13.312,36.007,36.588,41.176,4.588,295.2,543.2,291.2
2023-10-11T00:21:08,2420,42.8014,5.9826,4330,272,186.738,57.198,13.314,36.020,36.600,41.186,4.586,295.3,543.1,291.1
2023-10-11T00:24:08,2420,42.8014,5.9826,4330,272,186.678,57.189,13.322,36.020,36.600,41.195,4.594,295.3,543.1,290.8
2023-10-11T00:27:08,2420,42.8014,5.9826,4330,272,186.866,57.236,13.314,36.012,36.592,41.181,4.589,295.3,543.3,291.1
2023-10-11T00:30:07,2420,42.8014,5.9826,4330,272,186.788,57.205,13.308,36.019,36.600,41.190,4.591,295.3,543.1,291.3
2023-10-11T00:33:07,2420,42.8014,5.9826,4330,272,186.905,57.244,13.310,36.011,36.591,41.177,4.586,295.2,543.2,291.2
2023-10-11T00:36:07,2420,42.8014,5.9826,4330,272,186.964,57.272,13.318,36.003,36.584,41.170,4.586,295.2,543.1,291.0
2023-10-11T00:39:07,2420,42.8014,5.9826,4330,272,186.763,57.196,13.307,36.022,36.602,41.186,4.584,295.3,543.2,291.3
2023-10-11T00:42:07,2420,42.8014,5.9826,4330,272,186.892,57.242,13.312,36.011,36.591,41.178,4.587,295.3,543.2,291.2
2023-10-11T00:45:07,2420,42.8014,5.9826,4330,272,186.679,57.183,13.316,36.022,36.602,41.188,4.586,295.3,543.2,291.0
2023-10-11T00:48:07,2420,42.8014,5.9826,4330,272,186.850,57.224,13.308,36.016,36.596,41.188,4.592,295.3,543.1,291.3
2023-10-11T00:51:08,2420,42.8014,5.9826,4330,272,186.762,57.195,13.307,36.022,36.602,41.190,4.588,295.2,543.2,291.3
2023-10-11T00:54:08,2420,42.8014,5.9826,4330,272,186.855,57.230,13.312,36.014,36.594,41.188,4.595,295.3,543.2,291.2
2023-10-11T00:57:08,2420,42.8014,5.9826,4330,272,186.816,57.232,13.322,36.011,36.591,41.176,4.585,295.3,543.2,290.8
2023-10-11T01:00:08,2420,42.8014,5.9826,4330,272,186.852,57.226,13.309,36.015,36.596,41.187,4.591,295.3,543.3,291.3
2023-10-11T01:03:07,2420,42.8014,5.9826,4330,272,186.940,57.255,13.310,36.009,36.589,41.178,4.589,295.3,543.3,291.2
2023-10-11T01:06:07,2420,42.8014,5.9826,4330,272,186.990,57.273,13.312,36.004,36.585,41.176,4.591,295.3,543.2,291.2
2023-10-11T01:09:07,2420,42.8014,5.9826,4330,272,186.974,57.260,13.306,36.008,36.588,41.177,4.588,295.3,543.2,291.3
2023-10-11T01:12:07,2420,42.8014,5.9826,4330,272,186.826,57.222,13.312,36.016,36.596,41.188,4.592,295.3,543.2,291.2
2023-10-11T01:15:07,2420,42.8014,5.9826,4330,272,187.044,57.292,13.314,36.000,36.581,41.172,4.591,295.3,543.3,291.1
2023-10-11T01:18:07,2420,42.8014,5.9826,4330,272,186.932,57.246,13.305,36.011,36.591,41.179,4.588,295.4,543.2,291.4
2023-10-11T01:21:07,2420,42.8014,5.9826,4330,272,187.018,57.281,13.312,36.002,36.583,41.179,4.597,295.2,543.2,291.2
2023-10-11T01:24:07,2420,42.8014,5.9826,4330,272,186.965,57.260,13.308,36.008,36.588,41.173,4.584,295.2,543.2,291.3
2023-10-11T01:27:07,2420,42.8014,5.9826,4330,272,187.024,57.281,13.310,36.003,36.583,41.179,4.596,295.3,543.2,291.2
2023-10-11T01:30:07,2420,42.8014,5.9826,4330,272,186.690,57.178,13.310,36.025,36.605,41.196,4.591,295.3,543.2,291.2
2023-10-11T01:33:07,2420,42.8014,5.9826,4330,272,186.751,57.193,13.307,36.022,36.603,41.190,4.588,295.3,543.2,291.3
2023-10-11T01:36:07,2420,42.8014,5.9826,4330,272,186.970,57.258,13.305,36.009,36.589,41.181,4.592,295.3,543.2,291.4
2023-10-11T01:39:07,2420,42.8014,5.9826,4330,272,186.776,57.211,13.315,36.017,36.597,41.182,4.585,295.3,543.2,291.1
2023-10-11T01:42:07,2420,42.8014,5.9826,4330,272,186.964,57.254,13.304,36.010,36.590,41.179,4.589,295.3,543.2,291.4
2023-10-11T01:45:07,2420,42.8014,5.9826,4330,272,186.930,57.249,13.308,36.010,36.590,41.183,4.593,295.3,543.2,291.3
2023-10-11T01:48:07,2420,42.8014,5.9826,4330,272,186.826,57.217,13.308,36.017,36.597,41.183,4.586,295.3,543.2,291.3
2023-10-11T01:51:08,2420,42.8014,5.9826,4330,272,186.830,57.217,13.307,36.018,36.598,41.189,4.591,295.3,543.2,291.3
2023-10-11T01:54:08,2420,42.8014,5.9826,4330,272,186.789,57.216,13.316,36.015,36.596,41.188,4.592,295.2,543.3,291.0
2023-10-11T01:57:08,2420,42.8014,5.9826,4330,272,186.922,57.256,13.315,36.007,36.587,41.175,4.588,295.2,543.3,291.0
2023-10-11T02:00:08,2420,42.8014,5.9826,4330,272,186.903,57.235,13.303,36.014,36.595,41.181,4.586,295.3,543.2,291.5
2023-10-11T02:03:07,2420,42.8014,5.9826,4330,272,186.913,57.248,13.312,36.009,36.589,41.182,4.593,295.3,543.2,291.2
2023-10-11T02:06:07,2420,42.8014,5.9826,4330,272,186.849,57.225,13.309,36.015,36.596,41.190,4.595,295.2,543.2,291.3
2023-10-11T02:09:07,2420,42.8014,5.9826,4330,272,186.857,57.242,13.320,36.009,36.589,41.184,4.595,295.3,543.1,290.9
2023-10-11T02:12:07,2420,42.8014,5.9826,4330,272,186.709,57.191,13.316,36.021,36.601,41.194,4.592,295.3,543.1,291.0
2023-10-11T02:15:07,2420,42.8014,5.9826,4330,272,187.037,57.279,13.306,36.004,36.585,41.173,4.588,295.3,543.2,291.4
2023-10-11T02:18:07,2420,42.8014,5.9826,4330,272,186.969,57.268,13.313,36.005,36.586,41.175,4.589,295.3,543.1,291.1
2023-10-11T02:21:07,2420,42.8014,5.9826,4330,272,186.921,57.245,13.307,36.011,36.591,41.180,4.589,295.3,543.2,291.3
2023-10-11T02:24:07,2420,42.8014,5.9826,4330,272,186.657,57.169,13.311,36.027,36.607,41.198,4.591,295.3,543.2,291.2
2023-10-11T02:27:07,2420,42.8014,5.9826,4330,272,187.103,57.309,13.314,35.996,36.576,41.166,4.590,295.3,543.2,291.1
2023-10-11T02:30:08,2420,42.8014,5.9826,4330,272,187.063,57.295,13.312,36.000,36.580,41.167,4.587,295.3,543.2,291.2
2023-10-11T02:33:07,2420,42.8014,5.9826,4330,272,186.926,57.243,13.304,36.012,36.592,41.180,4.587,295.3,543.2,291.4
2023-10-11T02:36:07,2420,42.8014,5.9826,4330,272,187.040,57.282,13.307,36.003,36.584,41.178,4.594,295.2,543.3,291.3
2023-10-11T02:39:07,2420,42.8014,5.9826,4330,272,186.820,57.217,13.309,36.016,36.597,41.187,4.590,295.2,543.2,291.2
2023-10-11T02:42:08,2420,42.8014,5.9826,4330,272,187.035,57.281,13.308,36.003,36.584,41.172,4.588,295.3,543.2,291.3
2023-10-11T02:45:08,2420,42.8014,5.9826,4330,272,186.699,57.179,13.308,36.025,36.605,41.192,4.587,295.3,543.2,291.3
2023-10-11T02:48:08,2420,42.8014,5.9826,4330,272,186.783,57.210,13.313,36.017,36.597,41.188,4.590,295.4,543.2,291.1
2023-10-11T02:51:08,2420,42.8014,5.9826,4330,272,186.838,57.220,13.307,36.017,36.597,41.188,4.591,295.3,543.3,291.3
2023-10-11T02:54:08,2420,42.8014,5.9826,4330,272,186.674,57.180,13.315,36.024,36.604,41.194,4.590,295.3,543.2,291.1
2023-10-11T02:57:08,2420,42.8014,5.9826,4330,272,186.801,57.213,13.311,36.018,36.598,41.189,4.591,295.4,543.2,291.2
2023-10-11T03:00:08,2420,42.8014,5.9826,4330,272,186.887,57.237,13.309,36.012,36.592,41.185,4.592,295.3,543.2,291.3
2023-10-11T03:03:07,2420,42.8014,5.9826,4330,272,186.737,57.200,13.316,36.019,36.599,41.187,4.588,295.3,543.2,291.0
2023-10-11T03:06:07,2420,42.8014,5.9826,4330,272,186.761,57.200,13.310,36.020,36.600,41.194,4.594,295.3,543.2,291.2
2023-10-11T03:09:07,2420,42.8014,5.9826,4330,272,186.832,57.233,13.319,36.011,36.592,41.186,4.594,295.3,543.2,290.9
2023-10-11T03:12:07,2420,42.8014,5.9826,4330,272,186.862,57.237,13.315,36.011,36.591,41.188,4.597,295.3,543.2,291.1
2023-10-11T03:15:07,2420,42.8014,5.9826,4330,272,186.808,57.227,13.320,36.012,36.592,41.183,4.590,295.3,543.1,290.9
2023-10-11T03:18:08,2420,42.8014,5.9826,4330,272,186.763,57.201,13.311,36.020,36.600,41.189,4.589,295.3,543.2,291.2
2023-10-11T03:21:08,2420,42.8014,5.9826,4330,272,186.707,57.185,13.312,36.023,36.603,41.195,4.592,295.4,543.2,291.2
2023-10-11T03:24:08,2420,42.8014,5.9826,4330,272,186.720,57.179,13.303,36.026,36.606,41.197,4.590,295.3,543.2,291.5
2023-10-11T03:27:08,2420,42.8014,5.9826,4330,272,186.985,57.269,13.311,36.005,36.585,41.179,4.593,295.3,543.2,291.2
2023-10-11T03:30:07,2420,42.8014,5.9826,4330,272,186.927,57.248,13.308,36.010,36.590,41.175,4.585,295.3,543.2,291.3
2023-10-11T03:33:07,2420,42.8014,5.9826,4330,272,186.895,57.242,13.311,36.011,36.591,41.184,4.593,295.4,543.2,291.2
2023-10-11T03:36:07,2420,42.8014,5.9826,4330,272,186.958,57.259,13.309,36.008,36.588,41.178,4.590,295.3,543.2,291.3
2023-10-11T03:39:07,2420,42.8014,5.9826,4330,272,186.695,57.176,13.307,36.026,36.606,41.195,4.588,295.3,543.2,291.3
2023-10-11T03:42:07,2420,42.8014,5.9826,4330,272,186.988,57.274,13.314,36.004,36.584,41.175,4.591,295.3,543.1,291.1
2023-10-11T03:45:07,2420,42.8014,5.9826,4330,272,186.750,57.201,13.314,36.019,36.599,41.188,4.589,295.2,543.1,291.1
2023-10-11T03:48:07,2420,42.8014,5.9826,4330,272,186.894,57.238,13.308,36.012,36.593,41.183,4.590,295.3,543.2,291.3
2023-10-11T03:51:08,2420,42.8014,5.9826,4330,272,186.819,57.222,13.314,36.015,36.595,41.187,4.592,295.4,543.2,291.1
2023-10-11T03:54:08,2420,42.8014,5.9826,4330,272,186.964,57.258,13.307,36.009,36.589,41.181,4.592,295.3,543.2,291.3
2023-10-11T03:57:08,2420,42.8014,5.9826,4330,272,186.819,57.219,13.311,36.016,36.596,41.187,4.591,295.4,543.2,291.2
2023-10-11T04:00:08,2420,42.8014,5.9826,4330,272,186.655,57.169,13.311,36.026,36.606,41.203,4.597,295.3,543.1,291.2
2023-10-11T04:03:07,2420,42.8014,5.9826,4330,272,186.535,57.139,13.317,36.032,36.612,41.201,4.589,295.4,543.3,291.0
2023-10-11T04:06:07,2420,42.8014,5.9826,4330,272,186.808,57.225,13.318,36.013,36.594,41.187,4.594,295.3,543.2,291.0
2023-10-11T04:09:07,2420,42.8014,5.9826,4330,272,186.829,57.222,13.311,36.015,36.595,41.184,4.588,295.3,543.2,291.2
2023-10-11T04:12:07,2420,42.8014,5.9826,4330,272,187.074,57.296,13.310,36.000,36.580,41.174,4.594,295.3,543.2,291.2
2023-10-11T04:15:07,2420,42.8014,5.9826,4330,272,186.902,57.243,13.310,36.011,36.591,41.182,4.591,295.3,543.3,291.2
2023-10-11T04:18:07,2420,42.8014,5.9826,4330,272,186.834,57.231,13.317,36.012,36.592,41.183,4.591,295.3,543.2,291.0
2023-10-11T04:21:07,2420,42.8014,5.9826,4330,272,186.807,57.232,13.324,36.011,36.591,41.185,4.594,295.3,543.1,290.8
2023-10-11T04:24:07,2420,42.8014,5.9826,4330,272,186.767,57.216,13.321,36.015,36.595,41.186,4.591,295.3,543.1,290.9
2023-10-11T04:27:07,2420,42.8014,5.9826,4330,272,186.705,57.198,13.322,36.018,36.598,41.187,4.589,295.4,543.2,290.8
2023-10-11T04:30:07,2420,42.8014,5.9826,4330,272,186.553,57.146,13.318,36.029,36.610,41.201,4.591,295.4,543.2,291.0
2023-10-11T04:33:07,2420,42.8014,5.9826,4330,272,186.736,57.191,13.309,36.023,36.603,41.192,4.589,295.4,543.2,291.3
2023-10-11T04:36:07,2420,42.8014,5.9826,4330,272,186.795,57.210,13.310,36.018,36.598,41.195,4.597,295.3,543.2,291.2
2023-10-11T04:39:07,2420,42.8014,5.9826,4330,272,186.674,57.182,13.317,36.022,36.603,41.193,4.590,295.3,543.1,291.0
2023-10-11T04:42:07,2420,42.8014,5.9826,4330,272,186.937,57.276,13.328,36.000,36.580,41.172,4.592,295.3,543.1,290.6
2023-10-11T04:45:07,2420,42.8014,5.9826,4330,272,186.648,57.162,13.307,36.029,36.609,41.201,4.592,295.3,543.2,291.3
2023-10-11T04:48:07,2420,42.8014,5.9826,4330,272,186.655,57.180,13.320,36.022,36.602,41.194,4.592,295.2,543.1,290.9
2023-10-11T04:51:07,2420,42.8014,5.9826,4330,272,186.678,57.184,13.318,36.021,36.601,41.193,4.591,295.3,543.2,291.0
2023-10-11T04:54:08,2420,42.8014,5.9826,4330,272,186.999,57.276,13.313,36.004,36.584,41.178,4.594,295.4,543.1,291.1
2023-10-11T04:57:08,2420,42.8014,5.9826,4330,272,186.666,57.189,13.324,36.019,36.600,41.192,4.592,295.4,543.2,290.8
2023-10-11T05:00:08,2420,42.8014,5.9826,4330,272,186.468,57.129,13.325,36.032,36.612,41.197,4.586,295.4,543.2,290.7
2023-10-11T05:03:07,2420,42.8014,5.9826,4330,272,186.398,57.109,13.326,36.036,36.616,41.208,4.592,295.4,543.2,290.7
2023-10-11T05:06:07,2420,42.8014,5.9826,4330,272,186.626,57.165,13.315,36.026,36.606,41.197,4.591,295.4,543.2,291.0
2023-10-11T05:09:07,2420,42.8014,5.9826,4330,272,186.510,57.131,13.316,36.034,36.614,41.204,4.590,295.4,543.2,291.0
2023-10-11T05:12:07,2420,42.8014,5.9826,4330,272,186.709,57.202,13.325,36.016,36.596,41.183,4.587,295.3,543.1,290.8
2023-10-11T05:15:07,2420,42.8014,5.9826,4330,272,186.550,57.148,13.320,36.029,36.609,41.196,4.587,295.4,543.1,290.9
2023-10-11T05:18:07,2420,42.8014,5.9826,4330,272,186.583,57.152,13.315,36.030,36.610,41.205,4.596,295.3,543.2,291.1
2023-10-11T05:21:07,2420,42.8014,5.9826,4330,272,186.443,57.113,13.318,36.037,36.617,41.208,4.592,295.5,543.2,291.0
2023-10-11T05:24:08,2420,42.8014,5.9826,4330,272,186.759,57.216,13.323,36.014,36.594,41.192,4.598,295.3,543.2,290.8
2023-10-11T05:27:08,2420,42.8014,5.9826,4330,272,186.578,57.148,13.313,36.030,36.611,41.201,4.590,295.4,543.2,291.1
2023-10-11T05:30:08,2420,42.8014,5.9826,4330,272,186.729,57.196,13.315,36.020,36.600,41.188,4.588,295.3,543.2,291.1
2023-10-11T05:33:07,2420,42.8014,5.9826,4330,272,186.785,57.220,13.320,36.014,36.594,41.189,4.594,295.3,543.2,290.9
2023-10-11T05:36:07,2420,42.8014,5.9826,4330,272,186.516,57.141,13.323,36.030,36.610,41.204,4.594,295.4,543.1,290.8
2023-10-11T05:39:07,2420,42.8014,5.9826,4330,272,186.685,57.184,13.316,36.022,36.602,41.194,4.592,295.4,543.2,291.0
2023-10-11T05:42:07,2420,42.8014,5.9826,4330,272,186.705,57.201,13.325,36.016,36.597,41.191,4.595,295.4,543.1,290.7
2023-10-11T05:45:07,2420,42.8014,5.9826,4330,272,186.429,57.116,13.324,36.034,36.614,41.204,4.590,295.4,543.2,290.8
2023-10-11T05:48:07,2420,42.8014,5.9826,4330,272,186.704,57.199,13.323,36.017,36.597,41.193,4.595,295.4,543.1,290.8
2023-10-11T05:51:08,2420,42.8014,5.9826,4330,272,186.498,57.141,13.327,36.029,36.609,41.202,4.592,295.3,543.1,290.7
2023-10-11T05:54:08,2420,42.8014,5.9826,4330,272,186.476,57.130,13.324,36.032,36.612,41.202,4.589,295.4,543.2,290.8
2023-10-11T05:57:08,2420,42.8014,5.9826,4330,272,186.426,57.115,13.324,36.035,36.615,41.204,4.589,295.4,543.1,290.8
2023-10-11T06:00:08,2420,42.8014,5.9826,4330,272,186.490,57.131,13.321,36.032,36.612,41.206,4.594,295.4,543.1,290.9
2023-10-11T06:03:07,2420,42.8014,5.9826,4330,272,186.461,57.121,13.320,36.034,36.615,41.205,4.591,295.4,543.1,290.9
2023-10-11T06:06:07,2420,42.8014,5.9826,4330,272,186.738,57.203,13.318,36.018,36.598,41.193,4.595,295.4,543.1,291.0
2023-10-11T06:09:07,2420,42.8014,5.9826,4330,272,186.627,57.167,13.317,36.026,36.606,41.196,4.590,295.4,543.1,291.0
2023-10-11T06:12:07,2420,42.8014,5.9826,4330,272,186.520,57.147,13.327,36.028,36.608,41.204,4.596,295.4,543.2,290.7
2023-10-11T06:15:07,2420,42.8014,5.9826,4330,272,186.629,57.162,13.312,36.028,36.608,41.198,4.590,295.4,543.2,291.2
2023-10-11T06:18:07,2420,42.8014,5.9826,4330,272,186.600,57.150,13.310,36.031,36.611,41.203,4.592,295.5,543.2,291.2
2023-10-11T06:21:07,2420,42.8014,5.9826,4330,272,186.751,57.213,13.323,36.015,36.595,41.189,4.594,295.4,543.2,290.8
2023-10-11T06:24:08,2420,42.8014,5.9826,4330,272,186.696,57.183,13.312,36.023,36.604,41.197,4.593,295.4,543.2,291.2
2023-10-11T06:27:08,2420,42.8014,5.9826,4330,272,186.768,57.223,13.327,36.012,36.592,41.184,4.592,295.4,543.0,290.7
2023-10-11T06:30:08,2420,42.8014,5.9826,4330,272,186.544,57.157,13.328,36.025,36.605,41.196,4.591,295.5,543.2,290.6
2023-10-11T06:33:07,2420,42.8014,5.9826,4330,272,186.769,57.204,13.312,36.019,36.599,41.190,4.591,295.5,543.2,291.2
2023-10-11T06:36:07,2420,42.8014,5.9826,4330,272,186.628,57.175,13.323,36.022,36.602,41.191,4.589,295.4,543.1,290.8
2023-10-11T06:39:08,2420,42.8014,5.9826,4330,272,186.733,57.197,13.315,36.020,36.600,41.191,4.591,295.5,543.1,291.1
2023-10-11T06:42:08,2420,42.8014,5.9826,4330,272,186.768,57.214,13.320,36.015,36.595,41.189,4.594,295.3,543.2,290.9
2023-10-11T06:45:08,2420,42.8014,5.9826,4330,272,186.572,57.161,13.325,36.025,36.605,41.195,4.590,295.4,543.1,290.7
2023-10-11T06:48:08,2420,42.8014,5.9826,4330,272,186.591,57.173,13.330,36.022,36.602,41.197,4.595,295.4,543.0,290.6
2023-10-11T06:51:08,2420,42.8014,5.9826,4330,272,186.605,57.161,13.317,36.026,36.606,41.199,4.592,295.5,543.1,291.0
2023-10-11T06:54:08,2420,42.8014,5.9826,4330,272,186.632,57.187,13.331,36.018,36.599,41.193,4.595,295.4,543.1,290.5
2023-10-11T06:57:08,2420,42.8014,5.9826,4330,272,186.458,57.129,13.328,36.031,36.611,41.204,4.593,295.5,543.1,290.6
2023-10-11T07:00:08,2420,42.8014,5.9826,4330,272,186.346,57.084,13.319,36.042,36.622,41.214,4.591,295.4,543.2,290.9
2023-10-11T07:03:07,2420,42.8014,5.9826,4330,272,186.491,57.131,13.321,36.033,36.613,41.205,4.592,295.4,543.1,290.9
2023-10-11T07:06:07,2420,42.8014,5.9826,4330,272,186.518,57.132,13.315,36.033,36.613,41.207,4.594,295.4,543.2,291.0
2023-10-11T07:09:07,2420,42.8014,5.9826,4330,272,186.373,57.088,13.315,36.043,36.623,41.214,4.591,295.4,543.2,291.1
2023-10-11T07:12:07,2420,42.8014,5.9826,4330,272,186.754,57.203,13.314,36.018,36.599,41.191,4.592,295.3,543.2,291.1
2023-10-11T07:15:07,2420,42.8014,5.9826,4330,272,186.762,57.217,13.323,36.014,36.594,41.187,4.593,295.3,543.2,290.8
2023-10-11T07:18:07,2420,42.8014,5.9826,4330,272,186.784,57.217,13.318,36.015,36.595,41.188,4.592,295.4,543.2,291.0
2023-10-11T07:21:08,2420,42.8014,5.9826,4330,272,186.451,57.127,13.328,36.032,36.612,41.202,4.590,295.3,543.1,290.7
2023-10-11T07:24:08,2420,42.8014,5.9826,4330,272,186.418,57.113,13.325,36.036,36.616,41.208,4.592,295.3,543.2,290.7
2023-10-11T07:27:08,2420,42.8014,5.9826,4330,272,186.628,57.178,13.325,36.022,36.602,41.195,4.593,295.5,543.2,290.7
2023-10-11T07:30:08,2420,42.8014,5.9826,4330,272,186.444,57.121,13.324,36.034,36.614,41.205,4.591,295.6,543.2,290.8
2023-10-11T07:33:07,2420,42.8014,5.9826,4330,272,186.095,57.020,13.330,36.054,36.634,41.224,4.589,295.5,543.2,290.6
2023-10-11T07:36:07,2420,42.8014,5.9826,4330,272,186.337,57.096,13.331,36.038,36.618,41.209,4.591,295.5,543.1,290.6
2023-10-11T07:39:07,2420,42.8014,5.9826,4330,272,186.002,56.988,13.327,36.062,36.641,41.232,4.590,295.5,543.2,290.7
2023-10-11T07:42:07,2420,42.8014,5.9826,4330,272,186.199,57.053,13.330,36.047,36.627,41.215,4.588,295.5,543.1,290.6
2023-10-11T07:45:07,2420,42.8014,5.9826,4330,272,186.393,57.107,13.325,36.036,36.616,41.211,4.595,295.5,543.2,290.7
2023-10-11T07:48:07,2420,42.8014,5.9826,4330,272,186.295,57.083,13.330,36.040,36.620,41.209,4.589,295.6,543.2,290.6
2023-10-11T07:51:07,2420,42.8014,5.9826,4330,272,186.162,57.017,13.311,36.059,36.639,41.227,4.588,295.6,543.2,291.2
2023-10-11T07:54:07,2420,42.8014,5.9826,4330,272,186.612,57.167,13.320,36.025,36.605,41.195,4.590,295.5,543.2,290.9
2023-10-11T07:57:07,2420,42.8014,5.9826,4330,272,186.726,57.195,13.314,36.020,36.601,41.191,4.591,295.4,543.2,291.1
2023-10-11T08:00:08,2420,42.8014,5.9826,4330,272,186.536,57.152,13.327,36.026,36.607,41.196,4.589,295.3,543.1,290.7
2023-10-11T08:03:07,2420,42.8014,5.9826,4330,272,186.432,57.103,13.313,36.040,36.620,41.212,4.592,295.4,543.2,291.1
2023-10-11T08:06:07,2420,42.8014,5.9826,4330,272,186.562,57.158,13.325,36.026,36.606,41.200,4.594,295.3,543.1,290.7
2023-10-11T08:09:07,2420,42.8014,5.9826,4330,272,186.517,57.146,13.326,36.028,36.609,41.199,4.591,295.3,543.2,290.7
2023-10-11T08:12:08,2420,42.8014,5.9826,4330,272,186.403,57.105,13.322,36.038,36.618,41.209,4.591,295.4,543.1,290.8
2023-10-11T08:15:08,2420,42.8014,5.9826,4330,272,186.490,57.141,13.329,36.029,36.609,41.203,4.594,295.4,543.1,290.6
2023-10-11T08:18:08,2420,42.8014,5.9826,4330,272,186.600,57.164,13.320,36.026,36.606,41.201,4.596,295.5,543.2,290.9
2023-10-11T08:21:08,2420,42.8014,5.9826,4330,272,186.433,57.111,13.319,36.037,36.617,41.203,4.587,295.5,543.1,290.9
2023-10-11T08:24:08,2420,42.8014,5.9826,4330,272,186.442,57.116,13.321,36.036,36.616,41.209,4.593,295.4,543.1,290.9
2023-10-11T08:27:08,2420,42.8014,5.9826,4330,272,186.468,57.125,13.322,36.034,36.614,41.206,4.592,295.5,543.2,290.8
2023-10-11T08:30:08,2420,42.8014,5.9826,4330,272,186.581,57.163,13.324,36.025,36.605,41.198,4.593,295.4,543.2,290.8
2023-10-11T08:33:07,2420,42.8014,5.9826,4330,272,186.339,57.090,13.326,36.040,36.621,41.212,4.591,295.4,543.2,290.7
2023-10-11T08:36:07,2420,42.8014,5.9826,4330,272,186.593,57.166,13.324,36.025,36.605,41.196,4.591,295.4,543.2,290.8
2023-10-11T08:39:07,2420,42.8014,5.9826,4330,272,186.782,57.219,13.320,36.014,36.594,41.187,4.593,295.4,543.2,290.9
2023-10-11T08:42:07,2420,42.8014,5.9826,4330,272,186.627,57.167,13.316,36.026,36.606,41.201,4.595,295.4,543.1,291.0
2023-10-11T08:45:07,2420,42.8014,5.9826,4330,272,186.503,57.150,13.333,36.025,36.606,41.200,4.594,295.4,543.2,290.5
2023-10-11T08:48:08,2420,42.8014,5.9826,4330,272,186.575,57.153,13.318,36.029,36.609,41.201,4.592,295.4,543.1,291.0
2023-10-11T08:51:08,2420,42.8014,5.9826,4330,272,186.797,57.223,13.320,36.013,36.593,41.191,4.598,295.5,543.2,290.9
2023-10-11T08:54:08,2420,42.8014,5.9826,4330,272,186.408,57.111,13.325,36.036,36.616,41.208,4.592,295.4,543.2,290.7
2023-10-11T08:57:08,2420,42.8014,5.9826,4330,272,186.613,57.160,13.314,36.028,36.608,41.197,4.588,295.4,543.2,291.1
2023-10-11T09:00:08,2420,42.8014,5.9826,4330,272,186.832,57.225,13.313,36.014,36.594,41.185,4.591,295.3,543.2,291.1
2023-10-11T09:03:07,2420,42.8014,5.9826,4330,272,186.609,57.160,13.315,36.028,36.608,41.199,4.591,295.3,543.2,291.1
2023-10-11T09:06:07,2420,42.8014,5.9826,4330,272,186.452,57.128,13.328,36.031,36.611,41.200,4.589,295.4,543.1,290.6
2023-10-11T09:09:07,2420,42.8014,5.9826,4330,272,186.598,57.177,13.331,36.021,36.601,41.192,4.591,295.4,543.1,290.5
2023-10-11T09:12:07,2420,42.8014,5.9826,4330,272,186.511,57.138,13.321,36.031,36.611,41.205,4.593,295.4,543.1,290.9
2023-10-11T09:15:07,2420,42.8014,5.9826,4330,272,186.391,57.095,13.317,36.041,36.621,41.214,4.593,295.4,543.2,291.0
2023-10-11T09:18:07,2420,42.8014,5.9826,4330,272,186.620,57.170,13.321,36.024,36.604,41.200,4.595,295.5,543.2,290.9
2023-10-11T09:21:07,2420,42.8014,5.9826,4330,272,186.365,57.100,13.327,36.038,36.618,41.211,4.593,295.5,543.2,290.7
2023-10-11T09:24:08,2420,42.8014,5.9826,4330,272,186.524,57.153,13.331,36.026,36.606,41.198,4.592,295.4,543.2,290.6
2023-10-11T09:27:08,2420,42.8014,5.9826,4330,272,186.558,57.151,13.321,36.028,36.608,41.200,4.592,295.5,543.1,290.9
2023-10-11T09:30:08,2420,42.8014,5.9826,4330,272,186.312,57.076,13.321,36.044,36.624,41.215,4.591,295.4,543.2,290.9
2023-10-11T09:33:07,2420,42.8014,5.9826,4330,272,186.288,57.065,13.318,36.047,36.627,41.216,4.588,295.5,543.2,291.0
2023-10-11T09:36:07,2420,42.8014,5.9826,4330,272,186.393,57.089,13.312,36.043,36.623,41.212,4.588,295.5,543.1,291.2
2023-10-11T09:39:07,2420,42.8014,5.9826,4330,272,186.704,57.194,13.319,36.019,36.600,41.187,4.587,295.4,543.2,290.9
2023-10-11T09:42:07,2420,42.8014,5.9826,4330,272,186.681,57.188,13.320,36.021,36.601,41.192,4.591,295.4,543.1,290.9
2023-10-11T09:45:07,2420,42.8014,5.9826,4330,272,186.668,57.179,13.316,36.024,36.604,41.198,4.594,295.4,543.2,291.0
2023-10-11T09:48:07,2420,42.8014,5.9826,4330,272,186.582,57.151,13.315,36.029,36.609,41.205,4.596,295.4,543.2,291.1
2023-10-11T09:51:07,2420,42.8014,5.9826,4330,272,186.749,57.206,13.318,36.017,36.597,41.192,4.595,295.4,543.2,291.0
2023-10-11T09:54:07,2420,42.8014,5.9826,4330,272,186.537,57.142,13.318,36.031,36.611,41.202,4.592,295.3,543.2,291.0
2023-10-11T09:57:08,2420,42.8014,5.9826,4330,272,186.575,57.151,13.317,36.029,36.609,41.207,4.598,295.5,543.3,291.0
2023-10-11T10:00:08,2420,42.8014,5.9826,4330,272,186.393,57.095,13.316,36.041,36.621,41.212,4.591,295.5,543.2,291.0